Volver al catálogo

STARLINK-33953

ActivoComunicacionesVLEO
NORAD 64028·PAYLOAD·🇺🇸 United States

Lanzado May 16, 2025 desde Vandenberg Space Force Base

Loading…

Próximos Pases (próximas 24 horas)

TLE

ActualizadoSource: CelesTrak SupGP

Época: Sep 15, 2026, 02:55 UTC

1 64028C 25102G   26258.12201389  .00092533  00000+0  32182-2 0  2586
2 64028  70.0008 355.2326 0003405 270.1256 219.8433 15.29539261    12

Sigue STARLINK-33953 en tiempo real con AllMySat

Download on the App Store